DELTA 1 R/B, 2096

Orbit data source: Space-Track

DELTA 1 R/B, 2096 is space debris in SSO originally from a launch on Mon, 28 Feb 1966 UTC launched from the Air Force Eastern Test Range (AFETR). Debris objects in space refer to the collection of defunct objects orbiting the Earth. Examples of debris include non-operational satellites, rocket bodies, and fragments generated from explosions, collisions, or faulty payload assembly.

Loading next visibility...
DELTA 1 R/B details
Identifier
2096, 1966-016B
Orbit
SSO
Last TLE update14 hours ago
Origin
Flag of USGSFC (US)
ManufacturerABL
MissionSpacecraft
Bus & MotorALTAIR, Unknown motor
Mass33 kg wet, 33 kg dry
Launch date (UTC)
1966-02-28 (59 years ago)
Launch vehicleUnknown
Launch site
Air Force Eastern Test Range (AFETR)
Object type
Payload
Rocket body
Debris
Shape & HBRCyl, 1.5 m
Radar Cross Section0.687 m², Medium (>0.1 m² and < 1m²)

Expand to show TLE details & history

TLE from 14 hours ago
0 DELTA 1 R/B
1 02096U 66016B   25046.89693831 -.00000002  00000-0  20082-3 0  9998
2 02096 100.9269 265.0638 0040250  83.4256 289.1145 12.69968160732342
Epoch: 2025-02-15T21:31Z
Definitive object data (Epoch: 2025-02-15T21:31:35.469Z)
Latitude11.84189°
Longitude153.71986°
Altitude1,373.833 km
Speed7.178 km/s
True Right ascension17h 31m 01s
True Declination11° 46' 43"
Sunlit
Object was in daylight at TLE epoch
Visualization TLE readout
Latitude75.28186°
Longitude23.56435°
Altitude1,365.052 km
Speed7.196 km/s
Apparent Right ascension03h 32m 46s
Apparent Declination34° 56' 21"
Sunlit
Object is in daylight
Visualization observer readout
Local Sidereal Time13:59:31
Azimuth340.62° N
Elevation-12.118°
Doppler factor1
Orbital elements
Apogee altitude1,410.768 km
Perigee altitude1,348.319 km
Semi-major axis7,757.68 km
Eccentricity0.004025
Inclination100.9269°
RAAN265.0638°
Arg. of periapsis83.4256°
True anomaly288.67798°
Mean anomaly289.1145°
Eccentric anomaly288.89631°
Mean motion3.17647 °/min
BSTAR0.00020082
Orbital period113.33 mins
Loading maneuver chart data...
Loading historical data...
Loading historical data...
Loading historical data...
Loading historical data...
Loading historical data...
Loading historical data...
Loading historical data...
Other satellites on launch #16 in the year 1966 (1966-02-28 UTC)

DELTA 1 R/B Visibility forecast

Observer location: undefined°, undefined

Span
Click to sort rows by Start time (UTC) header in descending order
Start Az.
Max El. time (UTC)
Max El. Az.
Max El.
End time (UTC)
End Az.
12 mins2025-02-16 12:44:11.338Z110.161° ESE2025-02-16 12:50:11.338Z59.519° ENE24.322°2025-02-16 12:56:11.338Z6.561° NNE
13 mins2025-02-16 14:35:11.338Z176.721° S2025-02-16 14:41:11.338Z256.063° W42.679°2025-02-16 14:48:11.338Z337.284° NNW
12 mins2025-02-17 02:28:11.338Z38.442° NE2025-02-17 02:34:11.338Z105.137° ESE32.039°2025-02-17 02:40:11.338Z161.854° S
13 mins2025-02-17 04:19:11.338Z0.367° NNE2025-02-17 04:25:11.338Z297.246° NW35.071°2025-02-17 04:32:11.338Z228.69° WSW
|